Stations météo

Publicité
Le Luc, France (7675): Température de l'air & dewpoint: 13.10.2017 21:00:00 - 19.10.2017 21:00:00 (CEST)Le Luc, France (7675): Température de l'air 5cm: 13.10.2017 21:00:00 - 19.10.2017 21:00:00 (CEST)Le Luc, France (7675): Vitesse du vent & gusts: 13.10.2017 21:00:00 - 19.10.2017 21:00:00 (CEST)Le Luc, France (7675): Direction du vent: 13.10.2017 21:00:00 - 19.10.2017 21:00:00 (CEST)Le Luc, France (7675): reduced air pressure: 13.10.2017 21:00:00 - 19.10.2017 21:00:00 (CEST)Le Luc, France (7675): visibility: 13.10.2017 21:00:00 - 19.10.2017 21:00:00 (CEST)Le Luc, France (7675): Ensoleillement: 13.10.2017 21:00:00 - 19.10.2017 21:00:00 (CEST)Le Luc, France (7675): Quantités de précipitations: 13.10.2017 21:00:00 - 19.10.2017 21:00:00 (CEST)
Date & Time tt [°C] td [°C] tt 5cm [°C] ff [km/h] ff [knt] fx [km/h] fx [knt] dd ppp [hPa] vv [km] sd [min] rr [mm]
19.10.2017 21:00:00 18,0 13,7 16,9 9 5 27 15 E 1015,5 10 0 0,0
19.10.2017 20:00:00 19,0 14,0 18,5 11 6 33 18 E 1015,1 10 0 0,0
19.10.2017 19:00:00 19,0 14,0 18,7 18 10 34 18 E 1014,6 10 0 0,0
19.10.2017 18:00:00 19,8 13,9 19,8 22 12 42 23 E 1014,5 10 11 0,0
19.10.2017 17:00:00 20,6 13,5 21,2 26 14 42 23 ESE 1014,4 10 36 0,0
19.10.2017 16:00:00 21,5 13,1 22,8 28 15 46 25 ESE 1014,6 10 37 0,0
19.10.2017 15:00:00 22,6 13,6 23,8 28 15 47 26 ESE 1014,3 10 42 0,0
19.10.2017 14:00:00 22,2 13,5 23,0 29 16 49 26 ESE 1015,0 10 58 0,0
19.10.2017 13:00:00 21,9 14,0 24,8 31 17 47 25 E 1015,9 10 60 0,0
19.10.2017 12:00:00 21,6 13,2 24,1 29 16 45 24 E 1016,3 10 60 0,0
19.10.2017 11:00:00 21,4 13,3 22,7 22 12 36 19 E 1016,1 10 60 0,0
19.10.2017 10:00:00 19,6 14,4 16,6 11 6 16 9 ENE 1016,4 10 40 0,0
19.10.2017 09:00:00 16,9 14,2 16,4 5 3 14 8 - 1016,4 10 2 0,0
19.10.2017 08:00:00 17,4 14,3 16,9 11 6 19 10 ENE 1015,9 10 0 0,0
19.10.2017 07:00:00 17,8 14,7 17,0 11 6 18 10 NE 1016,4 10 0 0,0
19.10.2017 06:00:00 17,6 15,0 16,0 6 3 16 8 ENE 1016,4 31 0 0,0
19.10.2017 05:00:00 16,8 14,8 15,7 9 5 16 9 ENE 1016,1 10 0 0,0
19.10.2017 04:00:00 17,0 14,8 16,0 11 6 17 9 ENE 1016,0 10 0 0,0
19.10.2017 03:00:00 16,6 14,6 15,2 5 3 14 8 ENE 1016,8 10 0 0,0
19.10.2017 02:00:00 15,5 14,2 15,0 5 3 10 5 ENE 1016,9 10 0 0,0
19.10.2017 01:00:00 15,9 14,6 13,6 4 2 8 4 ENE 1017,2 10 0 0,0
19.10.2017 00:00:00 15,4 14,1 13,5 4 2 8 5 NE 1017,6 10 0 0,0
18.10.2017 23:00:00 16,1 14,3 15,2 5 3 11 6 ENE 1017,6 10 0 0,0
18.10.2017 22:00:00 16,1 14,5 13,7 6 3 8 5 NE 1017,9 17 0 0,0
18.10.2017 21:00:00 15,7 13,7 14,1 4 2 11 6 - 1017,7 10 0 0,0
18.10.2017 20:00:00 16,9 13,8 15,5 5 3 16 9 - 1017,5 10 0 0,0
18.10.2017 19:00:00 18,2 13,9 17,7 8 4 20 11 E 1017,5 10 22 0,0
18.10.2017 18:00:00 19,1 13,5 19,6 13 7 27 15 SE 1017,1 10 11 0,0
18.10.2017 17:00:00 20,2 13,4 21,3 15 8 30 16 ESE 1016,8 10 26 0,0
18.10.2017 16:00:00 21,4 12,5 24,9 16 9 26 14 SE 1017,2 10 58 0,0
18.10.2017 15:00:00 21,9 12,2 25,8 16 9 31 17 ESE 1017,3 10 60 0,0
18.10.2017 14:00:00 22,2 12,4 25,0 15 8 25 14 SE 1018,1 10 60 0,0
18.10.2017 13:00:00 20,6 13,1 21,9 11 6 22 12 ESE 1019,3 10 54 0,0
18.10.2017 12:00:00 16,6 12,7 18,3 4 2 6 3 - 1020,0 8 1 0,0
18.10.2017 11:00:00 14,3 12,0 15,2 2 1 5 3 - 1020,5 8 13 0,0
18.10.2017 10:00:00 11,9 11,7 11,8 2 1 8 5 - 1021,0 2,5 1 0,0
18.10.2017 09:00:00 11,3 11,3 10,2 0 0 6 3 N 1021,0 0,8 0 0,0
18.10.2017 08:00:00 10,3 10,3 10,0 0 0 6 3 N 1020,8 1,0 0 0,0
18.10.2017 07:00:00 10,4 10,2 10,3 4 2 6 4 N 1021,1 10 0 0,0
18.10.2017 06:00:00 10,9 10,4 10,4 0 0 5 3 N 1021,3 1,6 0 0,0
18.10.2017 05:00:00 10,3 10,0 9,7 4 2 6 3 WNW 1021,6 5 0 0,0
18.10.2017 04:00:00 9,9 9,3 9,7 0 0 5 3 N 1021,9 0,9 0 0,0
18.10.2017 03:00:00 10,4 9,0 7,9 4 2 6 3 - 1022,4 10 0 0,0
18.10.2017 02:00:00 8,9 8,1 6,8 4 2 5 3 SE 1022,7 10 0 0,0
18.10.2017 01:00:00 9,2 8,0 7,2 0 0 2 1 N 1022,6 10 0 0,0
18.10.2017 00:00:00 10,1 8,5 8,0 0 0 5 3 N 1022,8 10 0 0,0
17.10.2017 23:00:00 12,0 10,1 10,4 4 2 8 5 W 1022,8 10 0 0,0
17.10.2017 22:00:00 14,2 12,2 12,3 0 0 6 4 N 1022,6 10 0 0,0
17.10.2017 21:00:00 16,0 13,5 13,9 0 0 15 8 N 1022,5 10 0 0,0
17.10.2017 20:00:00 17,3 14,0 16,3 11 6 16 9 ENE 1022,2 10 0 0,0
17.10.2017 19:00:00 19,5 12,7 18,6 13 7 27 14 ENE 1022,0 39 26 0,0
17.10.2017 18:00:00 23,0 9,4 24,1 13 7 23 12 E 1021,8 10 60 0,0
17.10.2017 17:00:00 24,6 5,4 25,4 16 9 23 12 E 1022,2 10 60 0,0
17.10.2017 16:00:00 25,4 6,1 29,0 15 8 23 13 ESE 1022,2 10 60 0,0
17.10.2017 15:00:00 25,7 5,3 30,0 13 7 23 12 ESE 1022,7 10 60 0,0
17.10.2017 14:00:00 25,0 9,3 29,3 9 5 16 9 ENE 1023,5 10 60 0,0
17.10.2017 13:00:00 22,6 11,9 27,1 4 2 8 4 - 1024,7 10 60 0,0
17.10.2017 12:00:00 18,0 12,2 17,8 0 0 6 3 N 1025,6 10 55 0,0
17.10.2017 11:00:00 13,4 12,8 14,2 2 1 8 4 - 1026,2 10 0 0,0
17.10.2017 10:00:00 12,7 12,7 12,9 5 3 8 4 - 1026,5 1,0 0 0,0
17.10.2017 09:00:00 12,8 12,8 12,4 5 3 8 4 WNW 1026,4 0,5 0 0,0
17.10.2017 08:00:00 12,6 12,4 12,5 5 3 8 5 NNW 1026,1 0,5 0 0,0
17.10.2017 07:00:00 13,3 13,0 13,3 8 4 9 5 WNW 1026,3 4,2 0 0,0
17.10.2017 06:00:00 14,0 13,4 13,8 5 3 7 4 W 1026,2 4,4 0 0,0
17.10.2017 05:00:00 14,1 12,5 13,9 0 0 3 2 N 1026,1 14 0 0,0
17.10.2017 04:00:00 13,7 12,4 13,2 0 0 3 2 N 1026,4 12 0 0,0
17.10.2017 03:00:00 12,9 12,0 12,1 0 0 4 2 N 1027,0 7 0 0,0
17.10.2017 02:00:00 12,1 10,7 9,8 0 0 4 2 N 1027,3 9 0 0,0
17.10.2017 01:00:00 11,2 9,5 9,5 0 0 3 2 N 1027,4 32 0 0,0
17.10.2017 00:00:00 12,5 10,6 11,1 0 0 3 2 N 1027,5 26 0 0,0
16.10.2017 23:00:00 13,3 11,5 11,6 0 0 4 2 N 1027,4 18 0 0,0
16.10.2017 22:00:00 15,4 13,1 13,2 0 0 5 3 N 1027,2 24 0 0,0
16.10.2017 21:00:00 17,2 14,1 15,1 0 0 5 3 N 1026,8 23 0 0,0
16.10.2017 20:00:00 18,9 13,7 16,0 3 2 14 8 E 1026,5 31 0 0,0
16.10.2017 19:00:00 21,9 13,5 20,5 9 5 20 11 WSW 1025,9 10 27 0,0
16.10.2017 18:00:00 25,3 11,1 26,7 13 7 19 10 WSW 1025,3 10 60 0,0
16.10.2017 17:00:00 27,5 8,4 29,0 8 4 15 8 SW 1025,3 10 60 0,0
16.10.2017 16:00:00 27,5 9,3 32,5 4 2 14 8 - 1025,7 10 60 0,0
16.10.2017 15:00:00 25,7 9,9 31,1 4 2 8 4 - 1026,5 10 60 0,0
16.10.2017 14:00:00 23,7 13,3 26,8 0 0 7 4 N 1027,5 10 60 0,0
16.10.2017 13:00:00 20,0 14,4 20,7 2 1 10 5 - 1028,6 10 52 0,0
16.10.2017 12:00:00 16,2 14,7 16,8 4 2 10 5 - 1029,3 8 0 0,0
16.10.2017 11:00:00 14,4 14,2 14,7 0 0 6 3 N 1029,6 6 0 0,0
16.10.2017 10:00:00 13,2 13,2 13,1 4 2 6 3 - 1029,6 1,2 0 0,0
16.10.2017 09:00:00 13,0 13,0 12,8 4 2 9 5 WNW 1029,3 0,4 0 0,0
16.10.2017 08:00:00 13,1 13,1 13,0 5 3 9 5 NNW 1028,7 0,4 0 0,0
16.10.2017 07:00:00 13,7 13,7 13,6 5 3 7 4 N 1028,3 0,4 0 0,0
16.10.2017 06:00:00 14,1 14,1 13,8 0 0 3 2 N 1028,2 0,4 0 0,0
16.10.2017 05:00:00 14,0 13,8 13,5 0 0 2 1 N 1027,9 0,3 0 0,2
16.10.2017 04:00:00 13,8 13,5 13,5 0 0 2 1 N 1028,1 0,4 0 0,0
16.10.2017 03:00:00 13,7 12,8 13,4 0 0 4 2 N 1028,4 3,0 0 0,0
16.10.2017 02:00:00 13,0 11,4 13,1 0 0 4 2 N 1028,7 10 0 0,0
16.10.2017 01:00:00 13,1 12,0 10,5 2 1 4 2 W 1028,8 21 0 0,0
16.10.2017 00:00:00 12,8 11,9 11,1 0 0 3 2 N 1028,9 10 0 0,0
15.10.2017 23:00:00 14,2 12,2 12,1 0 0 5 3 N 1028,5 10 0 0,0
15.10.2017 22:00:00 16,3 14,1 14,3 0 0 6 3 N 1028,1 10 0 0,0
15.10.2017 21:00:00 18,1 15,2 16,3 5 3 7 4 WNW 1027,9 10 0 0,0
15.10.2017 20:00:00 19,2 15,1 17,2 2 1 17 9 - 1027,5 10 0 0,0
15.10.2017 19:00:00 22,3 13,6 21,1 8 4 22 12 SW 1026,6 10 29 0,0
15.10.2017 18:00:00 24,9 13,8 26,3 13 7 23 12 WSW 1026,2 10 60 0,0
15.10.2017 17:00:00 27,6 9,4 29,4 8 4 14 8 WSW 1026,1 10 60 0,0
15.10.2017 16:00:00 27,6 12,0 32,7 4 2 10 5 - 1026,5 10 60 0,0
15.10.2017 15:00:00 26,5 13,3 32,0 5 3 14 8 - 1027,1 10 60 0,0
15.10.2017 14:00:00 25,3 13,8 30,7 0 0 10 5 N 1027,9 10 60 0,0
15.10.2017 13:00:00 23,1 14,1 26,8 2 1 10 6 - 1029,0 10 60 0,0
15.10.2017 12:00:00 20,5 14,2 21,7 4 2 10 6 - 1029,8 10 57 0,0
15.10.2017 11:00:00 16,2 14,2 16,6 5 3 13 7 WSW 1030,3 10 2 0,0
15.10.2017 10:00:00 15,1 14,0 15,4 8 4 14 8 WSW 1030,2 10 0 0,0
15.10.2017 09:00:00 14,8 14,3 14,3 3 2 5 3 W 1029,8 2,7 0 0,0
15.10.2017 08:00:00 14,3 13,8 14,0 0 0 4 2 N 1029,3 2,5 0 0,0
15.10.2017 07:00:00 14,5 13,4 13,7 4 2 5 3 - 1029,1 6 0 0,0
15.10.2017 06:00:00 13,4 12,0 12,2 0 0 3 2 N 1029,3 10 0 0,0
15.10.2017 05:00:00 12,0 10,9 11,5 0 0 5 3 N 1029,2 10 0 0,0
15.10.2017 04:00:00 13,3 12,4 11,8 0 0 7 4 N 1029,2 10 0 0,0
15.10.2017 03:00:00 11,9 10,8 9,5 5 3 6 3 WSW 1029,5 10 0 0,0
15.10.2017 02:00:00 11,5 10,4 10,0 0 0 3 1 N 1029,4 10 0 0,0
15.10.2017 01:00:00 12,4 11,0 10,8 0 0 2 1 N 1029,2 10 0 0,0
15.10.2017 00:00:00 13,3 12,0 11,4 0 0 2 1 N 1028,9 10 0 0,0
14.10.2017 23:00:00 14,6 12,6 12,7 0 0 6 3 N 1028,5 10 0 0,0
14.10.2017 22:00:00 16,4 13,7 15,1 4 2 5 3 - 1028,1 10 0 0,0
14.10.2017 21:00:00 18,1 15,2 15,8 0 0 12 7 N 1027,9 10 0 0,0
14.10.2017 20:00:00 19,6 14,4 18,5 8 4 14 8 SW 1027,4 10 0 0,0
14.10.2017 19:00:00 21,4 14,5 20,5 9 5 20 11 WSW 1026,6 10 31 0,0
14.10.2017 18:00:00 24,1 14,2 25,9 9 5 16 9 WSW 1026,2 10 60 0,0
14.10.2017 17:00:00 26,3 13,1 29,0 4 2 11 6 - 1026,0 10 60 0,0
14.10.2017 16:00:00 25,9 12,4 31,2 5 3 13 7 - 1026,1 10 60 0,0
14.10.2017 15:00:00 25,4 12,6 30,2 5 3 15 8 - 1026,6 10 60 0,0
14.10.2017 14:00:00 24,0 13,5 26,5 5 3 16 9 - 1027,4 10 60 0,0
14.10.2017 13:00:00 21,9 13,5 23,4 4 2 13 7 - 1028,3 10 14 0,0
14.10.2017 12:00:00 20,8 13,7 23,0 5 3 13 7 SSW 1028,8 10 0 0,0
14.10.2017 11:00:00 19,7 13,8 20,0 4 2 7 4 - 1028,9 10 0 0,0
14.10.2017 10:00:00 18,2 14,7 18,1 5 3 10 5 NE 1028,5 20 0 0,0
14.10.2017 09:00:00 17,4 14,7 16,7 2 1 8 4 - 1028,1 10 0 0,0
14.10.2017 08:00:00 16,8 14,6 16,5 4 2 5 3 WNW 1027,5 10 0 0,0
14.10.2017 07:00:00 16,7 14,5 16,3 0 0 4 2 N 1027,4 10 0 0,0
14.10.2017 06:00:00 16,5 14,3 16,3 2 1 4 2 ESE 1027,3 10 0 0,0
14.10.2017 05:00:00 16,5 14,3 16,2 0 0 3 2 N 1027,0 10 0 0,0
14.10.2017 04:00:00 16,3 14,3 16,2 0 0 5 3 N 1027,1 10 0 0,0
14.10.2017 03:00:00 16,4 14,1 15,9 0 0 3 1 N 1027,1 10 0 0,0
14.10.2017 02:00:00 16,4 14,4 15,9 0 0 5 3 N 1027,1 10 0 0,0
14.10.2017 01:00:00 16,9 14,7 16,4 0 0 5 3 N 1026,9 10 0 0,0
14.10.2017 00:00:00 17,2 14,8 17,0 4 2 5 3 - 1027,0 10 0 0,0
13.10.2017 23:00:00 17,4 14,9 17,3 4 2 7 4 E 1027,1 19 0 0,0
13.10.2017 22:00:00 18,3 15,2 18,2 4 2 8 4 ENE 1026,6 10 0 0,0
13.10.2017 21:00:00 18,8 15,1 18,7 2 1 10 6 - 1026,4 10 0 0,0

tt = Température de l'air
td = dewpoint
tt 5cm = Température de l'air 5cm
ff = Vitesse du vent
fx = gusts
dd = Direction du vent
ppp = reduced air pressure
vv = visibility
sd = Ensoleillement
rr = Quantités de précipitations

stations d'obs. à proximité